TimeCST,TemperatureF,Dew PointF,Humidity,Sea Level PressureIn,VisibilityMPH,Wind Direction,Wind SpeedMPH,Gust SpeedMPH,PrecipitationIn,Events,Conditions,WindDirDegrees,DateUTC
12:53 AM,32.0,21.0,64,30.19,10.0,SSE,9.2,-,N/A,,Clear,150,2014-01-04 06:53:00
1:53 AM,32.0,21.0,64,30.19,10.0,SSE,8.1,-,N/A,,Clear,160,2014-01-04 07:53:00
2:53 AM,30.0,21.0,69,30.18,10.0,SE,8.1,-,N/A,,Clear,140,2014-01-04 08:53:00
3:53 AM,30.9,21.0,67,30.16,10.0,SE,10.4,-,N/A,,Clear,140,2014-01-04 09:53:00
4:53 AM,32.0,21.9,66,30.15,10.0,SSE,11.5,-,N/A,,Clear,150,2014-01-04 10:53:00
5:53 AM,32.0,21.9,66,30.14,10.0,SSE,9.2,-,N/A,,Clear,150,2014-01-04 11:53:00
6:53 AM,32.0,24.1,73,30.13,10.0,SE,9.2,-,N/A,,Clear,140,2014-01-04 12:53:00
7:53 AM,33.1,25.0,72,30.13,10.0,SSE,10.4,-,N/A,,Mostly Cloudy,150,2014-01-04 13:53:00
8:53 AM,37.0,28.0,70,30.11,10.0,SSE,15.0,-,N/A,,Overcast,150,2014-01-04 14:53:00
9:53 AM,39.9,30.9,70,30.10,10.0,SE,12.7,23.0,N/A,,Overcast,140,2014-01-04 15:53:00
10:53 AM,46.0,34.0,63,30.06,10.0,SSE,13.8,-,N/A,,Mostly Cloudy,160,2014-01-04 16:53:00
11:53 AM,52.0,37.0,57,30.02,10.0,SSE,10.4,-,N/A,,Clear,160,2014-01-04 17:53:00
12:53 PM,55.0,39.9,57,29.96,10.0,SSE,12.7,-,N/A,,Overcast,150,2014-01-04 18:53:00
1:53 PM,59.0,44.1,58,29.94,10.0,South,17.3,-,N/A,,Overcast,180,2014-01-04 19:53:00
2:53 PM,59.0,45.0,60,29.92,10.0,South,15.0,21.9,N/A,,Overcast,170,2014-01-04 20:53:00
3:53 PM,59.0,45.0,60,29.90,10.0,South,18.4,23.0,N/A,,Overcast,170,2014-01-04 21:53:00
4:53 PM,57.9,46.0,65,29.89,10.0,South,15.0,-,N/A,,Overcast,170,2014-01-04 22:53:00
5:53 PM,57.9,46.0,65,29.88,10.0,South,15.0,21.9,N/A,,Overcast,170,2014-01-04 23:53:00
6:53 PM,57.9,46.9,67,29.88,10.0,South,11.5,-,N/A,,Overcast,170,2014-01-05 00:53:00
7:53 PM,57.9,46.9,67,29.90,10.0,South,11.5,-,N/A,,Overcast,180,2014-01-05 01:53:00
8:53 PM,57.0,48.0,72,29.90,10.0,South,11.5,19.6,N/A,,Overcast,180,2014-01-05 02:53:00
9:53 PM,57.0,48.0,72,29.89,10.0,South,11.5,-,N/A,,Overcast,170,2014-01-05 03:53:00
10:53 PM,57.0,48.0,72,29.88,10.0,SE,6.9,-,N/A,,Overcast,140,2014-01-05 04:53:00
11:07 PM,57.2,48.2,72,29.88,10.0,SE,6.9,-,N/A,,Overcast,140,2014-01-05 05:07:00
11:33 PM,55.4,48.2,77,29.87,10.0,SE,10.4,-,N/A,,Overcast,140,2014-01-05 05:33:00
11:53 PM,55.9,48.9,77,29.87,10.0,SSE,11.5,-,N/A,,Overcast,150,2014-01-05 05:53:00